,,,PA_Meas_PMT16A,,PR_Meas_QMR101_102,,RH_Meas_QMH101,,SR_Meas_QMS101,,TA_Meas_QMH101,,GenWind,,GenWind,
date,time,status,PA,status,PR,status,RH,status,SR,status,TA,status,DirAvg,status,SpdAvg,
2009-05-09, 00:00:04,VALID,1004.56,VALID,0,VALID,91.5923,VALID,0,VALID,25.0839,VALID,344,VALID,0.536328,
2009-05-09, 00:01:04,VALID,1004.58,VALID,0,VALID,91.6839,VALID,0,VALID,25.0858,VALID,344,VALID,0.435547,
2009-05-09, 00:02:04,VALID,1004.54,VALID,0,VALID,91.6686,VALID,0,VALID,25.0644,VALID,344,VALID,0.501562,
2009-05-09, 00:03:04,VALID,1004.54,VALID,0,VALID,91.7297,VALID,0,VALID,25.0644,VALID,345,VALID,0.625391,
2009-05-09, 00:04:04,VALID,1004.5,VALID,0,VALID,91.722,VALID,0.100563,VALID,25.0644,VALID,345,VALID,0.403906,
2009-05-09, 00:05:04,VALID,1004.49,VALID,0,VALID,91.7602,VALID,0,VALID,25.0663,VALID,344,VALID,0.475391,
2009-05-09, 00:06:04,VALID,1004.48,VALID,0,VALID,91.8136,VALID,0.100563,VALID,25.045,VALID,351,VALID,0.579687,
2009-05-09, 00:07:04,VALID,1004.46,VALID,0,VALID,91.8822,VALID,0,VALID,25.0255,VALID,1,VALID,0.475391,
2009-05-09, 00:08:04,VALID,1004.45,VALID,0,VALID,91.9204,VALID,0,VALID,25.045,VALID,359,VALID,0.51875,
2009-05-09, 00:09:04,VALID,1004.44,VALID,0,VALID,91.9204,VALID,0,VALID,25.045,VALID,359,VALID,0.464453,
2009-05-09, 00:10:04,VALID,1004.44,VALID,0,VALID,91.928,VALID,0.100563,VALID,25.045,VALID,359,VALID,0.464453,
2009-05-09, 00:11:04,VALID,1004.45,VALID,0,VALID,91.8975,VALID,0,VALID,25.045,VALID,359,VALID,0.465234,
2009-05-09, 00:12:04,VALID,1004.45,VALID,0,VALID,91.9356,VALID,0.100563,VALID,25.045,VALID,356,VALID,0.490234,
2009-05-09, 00:13:04,VALID,1004.45,VALID,0,VALID,91.8899,VALID,0,VALID,25.045,VALID,356,VALID,0.548437,
2009-05-09, 00:14:04,VALID,1004.42,VALID,0,VALID,91.9128,VALID,0.100563,VALID,25.045,VALID,355,VALID,0.521094,
2009-05-09, 00:15:04,VALID,1004.41,VALID,0,VALID,91.9356,VALID,0,VALID,25.0469,VALID,355,VALID,0.574219,
2009-05-09, 00:16:04,VALID,1004.43,VALID,0,VALID,92.0196,VALID,0.100563,VALID,25.0255,VALID,355,VALID,0.404297,
2009-05-09, 00:17:04,VALID,1004.39,VALID,0,VALID,92.073,VALID,0,VALID,25.006,VALID,355,VALID,0.416406,
2009-05-09, 00:18:04,VALID,1004.39,VALID,0,VALID,92.1264,VALID,0.100563,VALID,25.006,VALID,355,VALID,0.315625,
2009-05-09, 00:19:04,VALID,1004.38,VALID,0,VALID,92.1416,VALID,0.100563,VALID,25.006,VALID,355,VALID,0.142188,
2009-05-09, 00:20:04,VALID,1004.37,VALID,0,VALID,92.134,VALID,0.100563,VALID,25.006,VALID,355,VALID,0.319922,
2009-05-09, 00:21:04,VALID,1004.37,VALID,0,VALID,92.073,VALID,0,VALID,25.006,VALID,355,VALID,0.025,
2009-05-09, 00:22:04,VALID,1004.37,VALID,0,VALID,92.0196,VALID,0,VALID,25.0274,VALID,355,VALID,0.0441406,
2009-05-09, 00:23:04,VALID,1004.38,VALID,0,VALID,91.9814,VALID,0,VALID,25.006,VALID,355,VALID,0.00429688,
2009-05-09, 00:24:04,VALID,1004.34,VALID,0,VALID,91.928,VALID,0.100563,VALID,25.0255,VALID,355,VALID,0.247266,
2009-05-09, 00:25:04,VALID,1004.36,VALID,0,VALID,91.8288,VALID,0,VALID,25.045,VALID,355,VALID,0.248047,
2009-05-09, 00:26:04,VALID,1004.33,VALID,0,VALID,91.8136,VALID,0,VALID,25.0858,VALID,355,VALID,0.242969,
2009-05-09, 00:27:04,VALID,1004.36,VALID,0,VALID,91.6839,VALID,0,VALID,25.0858,VALID,355,VALID,0.192188,
2009-05-09, 00:28:04,VALID,1004.36,VALID,0,VALID,91.6,VALID,0,VALID,25.1053,VALID,355,VALID,0.170703,
2009-05-09, 00:29:04,VALID,1004.37,VALID,0,VALID,91.4855,VALID,0,VALID,25.1248,VALID,355,VALID,0,
2009-05-09, 00:30:04,VALID,1004.36,VALID,0,VALID,91.4321,VALID,0,VALID,25.1442,VALID,355,VALID,0,
2009-05-09, 00:31:04,VALID,1004.37,VALID,0,VALID,91.4016,VALID,0,VALID,25.1229,VALID,356,VALID,0,
2009-05-09, 00:32:04,VALID,1004.36,VALID,0,VALID,91.394,VALID,0,VALID,25.1229,VALID,355,VALID,0,
2009-05-09, 00:33:04,VALID,1004.33,VALID,0,VALID,91.4016,VALID,0,VALID,25.1442,VALID,355,VALID,0.0417969,
2009-05-09, 00:34:04,VALID,1004.34,VALID,0,VALID,91.455,VALID,0,VALID,25.1034,VALID,355,VALID,0.358984,
2009-05-09, 00:35:04,VALID,1004.3,VALID,0,VALID,91.5008,VALID,0,VALID,25.1034,VALID,355,VALID,0,
2009-05-09, 00:36:04,VALID,1004.26,VALID,0,VALID,91.5389,VALID,0,VALID,25.0644,VALID,355,VALID,0,
2009-05-09, 00:37:04,VALID,1004.24,VALID,0,VALID,91.5771,VALID,0,VALID,25.0644,VALID,355,VALID,0,
2009-05-09, 00:38:04,VALID,1004.24,VALID,0,VALID,91.6686,VALID,0,VALID,25.045,VALID,355,VALID,0,
2009-05-09, 00:39:04,VALID,1004.24,VALID,0,VALID,91.7297,VALID,0,VALID,25.006,VALID,355,VALID,0,
2009-05-09, 00:40:04,VALID,1004.21,VALID,0,VALID,91.8517,VALID,0,VALID,24.9866,VALID,355,VALID,0,
2009-05-09, 00:41:04,VALID,1004.17,VALID,0,VALID,92.0119,VALID,0,VALID,24.9866,VALID,355,VALID,0,
2009-05-09, 00:42:04,VALID,1004.19,VALID,0,VALID,92.073,VALID,0.100563,VALID,25.0079,VALID,355,VALID,0,
2009-05-09, 00:43:04,VALID,1004.16,VALID,0,VALID,92.134,VALID,0,VALID,24.969,VALID,355,VALID,0,
2009-05-09, 00:44:04,VALID,1004.16,VALID,0,VALID,92.1798,VALID,0,VALID,24.9282,VALID,355,VALID,0,
2009-05-09, 00:45:04,VALID,1004.18,VALID,0,VALID,92.2332,VALID,0,VALID,24.9476,VALID,355,VALID,0,
2009-05-09, 00:46:04,VALID,1004.16,VALID,0,VALID,92.2866,VALID,0,VALID,24.93,VALID,355,VALID,0,
2009-05-09, 00:47:04,VALID,1004.16,VALID,0,VALID,92.3095,VALID,0,VALID,24.9087,VALID,355,VALID,0,
2009-05-09, 00:48:04,VALID,1004.15,VALID,0,VALID,92.3171,VALID,0.100563,VALID,24.8892,VALID,355,VALID,0,
2009-05-09, 00:49:04,VALID,1004.17,VALID,0,VALID,92.3629,VALID,0,VALID,24.8911,VALID,355,VALID,0,
2009-05-09, 00:50:04,VALID,1004.1,VALID,0,VALID,92.3934,VALID,0,VALID,24.8892,VALID,355,VALID,0,
2009-05-09, 00:51:04,VALID,1004.13,VALID,0,VALID,92.401,VALID,0,VALID,24.8716,VALID,355,VALID,0.181641,
2009-05-09, 00:52:04,VALID,1004.12,VALID,0,VALID,92.3934,VALID,0,VALID,24.8697,VALID,355,VALID,0,
2009-05-09, 00:53:04,VALID,1004.12,VALID,0,VALID,92.3705,VALID,0,VALID,24.8522,VALID,355,VALID,0.264844,
2009-05-09, 00:54:04,VALID,1004.14,VALID,0,VALID,92.3934,VALID,0,VALID,24.7919,VALID,355,VALID,0.158594,
2009-05-09, 00:55:04,VALID,1004.13,VALID,0,VALID,92.4086,VALID,0,VALID,24.7919,VALID,356,VALID,0,
2009-05-09, 00:56:04,VALID,1004.12,VALID,0,VALID,92.5841,VALID,0,VALID,24.8132,VALID,356,VALID,0.119531,
2009-05-09, 00:57:04,VALID,1004.14,VALID,0,VALID,92.6146,VALID,0,VALID,24.7919,VALID,356,VALID,0,
2009-05-09, 00:58:04,VALID,1004.13,VALID,0,VALID,92.6451,VALID,0,VALID,24.7724,VALID,356,VALID,0.190625,
2009-05-09, 00:59:04,VALID,1004.1,VALID,0,VALID,92.729,VALID,0.100563,VALID,24.7724,VALID,355,VALID,0,
2009-05-09, 01:00:04,VALID,1004.11,VALID,0,VALID,92.7748,VALID,0,VALID,24.7937,VALID,356,VALID,0,
2009-05-09, 01:01:04,VALID,1004.08,VALID,0,VALID,92.7824,VALID,0,VALID,24.7529,VALID,355,VALID,0.130469,
2009-05-09, 01:02:04,VALID,1004.1,VALID,0,VALID,92.7977,VALID,0,VALID,24.7335,VALID,355,VALID,0.235547,
2009-05-09, 01:03:04,VALID,1004.06,VALID,0,VALID,92.7443,VALID,0,VALID,24.714,VALID,355,VALID,0.241016,
2009-05-09, 01:04:04,VALID,1004.03,VALID,0,VALID,92.7748,VALID,0.100563,VALID,24.6964,VALID,355,VALID,0.213672,
2009-05-09, 01:05:04,VALID,1004.01,VALID,0,VALID,92.8435,VALID,0,VALID,24.6769,VALID,356,VALID,0.3625,
2009-05-09, 01:06:04,VALID,1004.01,VALID,0,VALID,92.8969,VALID,0,VALID,24.638,VALID,355,VALID,0.296094,
2009-05-09, 01:07:04,VALID,1004.01,VALID,0,VALID,92.9274,VALID,0,VALID,24.6166,VALID,355,VALID,0.0800781,
2009-05-09, 01:08:04,VALID,1004.01,VALID,0,VALID,92.9503,VALID,0.100563,VALID,24.6185,VALID,355,VALID,0,
2009-05-09, 01:09:04,VALID,1003.99,VALID,0,VALID,92.9655,VALID,0,VALID,24.5777,VALID,355,VALID,0,
2009-05-09, 01:10:04,VALID,1003.97,VALID,0,VALID,92.9732,VALID,0,VALID,24.5582,VALID,355,VALID,0,
2009-05-09, 01:11:04,VALID,1003.96,VALID,0,VALID,92.9579,VALID,0,VALID,24.5193,VALID,355,VALID,0,
2009-05-09, 01:12:04,VALID,1003.96,VALID,0,VALID,92.9732,VALID,0,VALID,24.5406,VALID,355,VALID,0,
2009-05-09, 01:13:04,VALID,1003.89,VALID,0,VALID,93.0495,VALID,0,VALID,24.5193,VALID,355,VALID,0.0417969,
2009-05-09, 01:14:04,VALID,1003.89,VALID,0,VALID,93.0952,VALID,0,VALID,24.5406,VALID,355,VALID,0.136328,
2009-05-09, 01:15:04,VALID,1003.87,VALID,0,VALID,93.1257,VALID,0,VALID,24.4998,VALID,356,VALID,0.0375,
2009-05-09, 01:16:04,VALID,1003.84,VALID,0,VALID,93.1334,VALID,0.100563,VALID,24.4998,VALID,356,VALID,0.334375,
2009-05-09, 01:17:04,VALID,1003.84,VALID,0,VALID,93.1791,VALID,0,VALID,24.4998,VALID,358,VALID,0.229297,
2009-05-09, 01:18:04,VALID,1003.81,VALID,0,VALID,93.2097,VALID,0,VALID,24.4998,VALID,358,VALID,0.251172,
2009-05-09, 01:19:04,VALID,1003.82,VALID,0,VALID,93.2478,VALID,0,VALID,24.4998,VALID,11,VALID,0.220313,
2009-05-09, 01:20:04,VALID,1003.81,VALID,0,VALID,93.2707,VALID,0,VALID,24.4998,VALID,11,VALID,0.389062,
2009-05-09, 01:21:04,VALID,1003.79,VALID,0,VALID,93.2783,VALID,0,VALID,24.4998,VALID,15,VALID,0.454297,
2009-05-09, 01:22:04,VALID,1003.76,VALID,0,VALID,93.3012,VALID,0.100563,VALID,24.4998,VALID,15,VALID,0.344141,
2009-05-09, 01:23:04,VALID,1003.74,VALID,0,VALID,93.2859,VALID,0.100563,VALID,24.5193,VALID,16,VALID,0.405859,
2009-05-09, 01:24:04,VALID,1003.72,VALID,0,VALID,93.2631,VALID,0.100563,VALID,24.5193,VALID,27,VALID,0.376953,
2009-05-09, 01:25:04,VALID,1003.72,VALID,0,VALID,93.2325,VALID,0,VALID,24.4998,VALID,27,VALID,0.358594,
2009-05-09, 01:26:04,VALID,1003.73,VALID,0,VALID,93.1563,VALID,0,VALID,24.5212,VALID,27,VALID,0.414453,
2009-05-09, 01:27:04,VALID,1003.73,VALID,0,VALID,93.0418,VALID,0,VALID,24.4822,VALID,27,VALID,0.293359,
2009-05-09, 01:28:04,VALID,1003.75,VALID,0,VALID,92.9274,VALID,0,VALID,24.4646,VALID,27,VALID,0.291406,
2009-05-09, 01:29:04,VALID,1003.74,VALID,0,VALID,92.9198,VALID,0,VALID,24.4257,VALID,27,VALID,0,
2009-05-09, 01:30:04,VALID,1003.73,VALID,0,VALID,92.9426,VALID,0,VALID,24.4043,VALID,27,VALID,0,
2009-05-09, 01:31:04,VALID,1003.75,VALID,0,VALID,92.9732,VALID,0,VALID,24.4275,VALID,27,VALID,0,
2009-05-09, 01:32:04,VALID,1003.75,VALID,0,VALID,93.1105,VALID,0,VALID,24.3849,VALID,27,VALID,0,
2009-05-09, 01:33:04,VALID,1003.74,VALID,0,VALID,93.1334,VALID,0,VALID,24.3849,VALID,27,VALID,0,
2009-05-09, 01:34:04,VALID,1003.71,VALID,0,VALID,93.08,VALID,0,VALID,24.3459,VALID,27,VALID,0,
2009-05-09, 01:35:04,VALID,1003.71,VALID,0,VALID,93.1029,VALID,0,VALID,24.3265,VALID,27,VALID,0,
2009-05-09, 01:36:04,VALID,1003.71,VALID,0,VALID,93.1257,VALID,0,VALID,24.3088,VALID,27,VALID,0,
2009-05-09, 01:37:04,VALID,1003.69,VALID,0,VALID,93.2097,VALID,0,VALID,24.2875,VALID,27,VALID,0,
2009-05-09, 01:38:04,VALID,1003.67,VALID,0,VALID,93.2478,VALID,0,VALID,24.2875,VALID,27,VALID,0,
2009-05-09, 01:39:04,VALID,1003.63,VALID,0,VALID,93.3317,VALID,0,VALID,24.3088,VALID,27,VALID,0,
2009-05-09, 01:40:04,VALID,1003.63,VALID,0,VALID,93.3394,VALID,0,VALID,24.2875,VALID,27,VALID,0,
2009-05-09, 01:41:04,VALID,1003.6,VALID,0,VALID,93.4309,VALID,0,VALID,24.2875,VALID,27,VALID,0,
2009-05-09, 01:42:04,VALID,1003.59,VALID,0,VALID,93.4843,VALID,0,VALID,24.2875,VALID,27,VALID,0,
2009-05-09, 01:43:04,VALID,1003.57,VALID,0,VALID,93.5072,VALID,0,VALID,24.2857,VALID,27,VALID,0,
2009-05-09, 01:44:04,VALID,1003.54,VALID,0,VALID,93.5224,VALID,0,VALID,24.2875,VALID,27,VALID,0,
2009-05-09, 01:45:04,VALID,1003.51,VALID,0,VALID,93.5453,VALID,0,VALID,24.2681,VALID,27,VALID,0,
2009-05-09, 01:46:04,VALID,1003.48,VALID,0,VALID,93.5606,VALID,0,VALID,24.2681,VALID,27,VALID,0,
2009-05-09, 01:47:04,VALID,1003.47,VALID,0,VALID,93.6064,VALID,0,VALID,24.2486,VALID,27,VALID,0,
2009-05-09, 01:48:04,VALID,1003.46,VALID,0,VALID,93.5835,VALID,0,VALID,24.2486,VALID,27,VALID,0,
2009-05-09, 01:49:04,VALID,1003.47,VALID,0,VALID,93.4996,VALID,0,VALID,24.2097,VALID,27,VALID,0,
2009-05-09, 01:50:04,VALID,1003.45,VALID,0,VALID,93.4614,VALID,0,VALID,24.1513,VALID,27,VALID,0,
2009-05-09, 01:51:04,VALID,1003.42,VALID,0,VALID,93.4843,VALID,0,VALID,24.1726,VALID,27,VALID,0,
2009-05-09, 01:52:04,VALID,1003.43,VALID,0,VALID,93.5758,VALID,0,VALID,24.1318,VALID,27,VALID,0,
2009-05-09, 01:53:04,VALID,1003.41,VALID,0,VALID,93.675,VALID,0,VALID,24.1707,VALID,27,VALID,0,
2009-05-09, 01:54:04,VALID,1003.4,VALID,0,VALID,93.7742,VALID,0,VALID,24.192,VALID,27,VALID,0,
2009-05-09, 01:55:04,VALID,1003.38,VALID,0,VALID,93.8352,VALID,0,VALID,24.2097,VALID,27,VALID,0,
2009-05-09, 01:56:04,VALID,1003.37,VALID,0,VALID,93.7818,VALID,0,VALID,24.2291,VALID,27,VALID,0,
2009-05-09, 01:57:04,VALID,1003.38,VALID,0,VALID,93.7132,VALID,0,VALID,24.2097,VALID,27,VALID,0,
2009-05-09, 01:58:04,VALID,1003.36,VALID,0,VALID,93.6674,VALID,0,VALID,24.1902,VALID,27,VALID,0,
2009-05-09, 01:59:04,VALID,1003.35,VALID,0,VALID,93.6369,VALID,0,VALID,24.1494,VALID,27,VALID,0,
2009-05-09, 02:00:04,VALID,1003.35,VALID,0,VALID,93.5987,VALID,0,VALID,24.13,VALID,27,VALID,0,
2009-05-09, 02:01:04,VALID,1003.37,VALID,0,VALID,93.553,VALID,0,VALID,24.091,VALID,27,VALID,0,
2009-05-09, 02:02:04,VALID,1003.36,VALID,0,VALID,93.5224,VALID,0,VALID,24.0521,VALID,27,VALID,0,
2009-05-09, 02:03:04,VALID,1003.32,VALID,0,VALID,93.6521,VALID,0,VALID,24.0308,VALID,27,VALID,0,
2009-05-09, 02:04:04,VALID,1003.32,VALID,0,VALID,93.8123,VALID,0.100563,VALID,24.0929,VALID,27,VALID,0,
2009-05-09, 02:05:04,VALID,1003.3,VALID,0,VALID,93.8581,VALID,0,VALID,24.091,VALID,27,VALID,0,
2009-05-09, 02:06:04,VALID,1003.32,VALID,0,VALID,93.9039,VALID,0,VALID,24.1105,VALID,27,VALID,0,
2009-05-09, 02:07:04,VALID,1003.27,VALID,0,VALID,93.9497,VALID,0,VALID,24.13,VALID,27,VALID,0,
2009-05-09, 02:08:04,VALID,1003.26,VALID,0,VALID,93.9725,VALID,0,VALID,24.1494,VALID,27,VALID,0,
2009-05-09, 02:09:04,VALID,1003.25,VALID,0,VALID,93.9649,VALID,0,VALID,24.1494,VALID,27,VALID,0,
2009-05-09, 02:10:04,VALID,1003.25,VALID,0,VALID,93.9268,VALID,0,VALID,24.13,VALID,27,VALID,0,
2009-05-09, 02:11:04,VALID,1003.24,VALID,0,VALID,93.8581,VALID,0,VALID,24.1318,VALID,27,VALID,0,
2009-05-09, 02:12:04,VALID,1003.26,VALID,0,VALID,93.8734,VALID,0,VALID,24.0734,VALID,27,VALID,0.21875,
2009-05-09, 02:13:04,VALID,1003.26,VALID,0,VALID,93.9039,VALID,0,VALID,24.0734,VALID,27,VALID,0.128516,
2009-05-09, 02:14:04,VALID,1003.26,VALID,0,VALID,93.9115,VALID,0,VALID,24.0539,VALID,27,VALID,0,
2009-05-09, 02:15:04,VALID,1003.32,VALID,0,VALID,93.9725,VALID,0,VALID,24.0521,VALID,27,VALID,0,
2009-05-09, 02:16:04,VALID,1003.35,VALID,0,VALID,93.9573,VALID,0,VALID,24.0539,VALID,27,VALID,0,
2009-05-09, 02:17:04,VALID,1003.37,VALID,0,VALID,93.9497,VALID,0,VALID,24.0539,VALID,27,VALID,0,
2009-05-09, 02:18:04,VALID,1003.41,VALID,0,VALID,93.9954,VALID,0,VALID,24.0345,VALID,27,VALID,0,
2009-05-09, 02:19:04,VALID,1003.44,VALID,0,VALID,94.0488,VALID,0,VALID,24.0326,VALID,27,VALID,0,
2009-05-09, 02:20:04,VALID,1003.43,VALID,0,VALID,94.0794,VALID,0,VALID,24.0734,VALID,27,VALID,0,
2009-05-09, 02:21:04,VALID,1003.46,VALID,0,VALID,94.0794,VALID,0,VALID,24.0734,VALID,27,VALID,0,
2009-05-09, 02:22:04,VALID,1003.53,VALID,0,VALID,94.0488,VALID,0,VALID,24.0539,VALID,27,VALID,0,
2009-05-09, 02:23:04,VALID,1003.5,VALID,0,VALID,94.0794,VALID,0,VALID,24.0557,VALID,27,VALID,0,
2009-05-09, 02:24:04,VALID,1003.53,VALID,0,VALID,94.087,VALID,0,VALID,24.0345,VALID,27,VALID,0,
2009-05-09, 02:25:04,VALID,1003.53,VALID,0,VALID,94.0717,VALID,0,VALID,24.015,VALID,27,VALID,0,
2009-05-09, 02:26:04,VALID,1003.53,VALID,0,VALID,94.1099,VALID,0,VALID,24.0363,VALID,27,VALID,0,
2009-05-09, 02:27:04,VALID,1003.55,VALID,0,VALID,94.1556,VALID,0,VALID,24.0345,VALID,27,VALID,0,
2009-05-09, 02:28:04,VALID,1003.53,VALID,0,VALID,94.1633,VALID,0,VALID,24.0345,VALID,27,VALID,0,
2009-05-09, 02:29:04,VALID,1003.54,VALID,0,VALID,94.2167,VALID,0,VALID,24.0345,VALID,27,VALID,0,
2009-05-09, 02:30:04,VALID,1003.54,VALID,0,VALID,94.2319,VALID,0,VALID,24.0345,VALID,27,VALID,0,
2009-05-09, 02:31:04,VALID,1003.54,VALID,0,VALID,94.1785,VALID,0,VALID,24.0539,VALID,27,VALID,0.3,
2009-05-09, 02:32:04,VALID,1003.57,VALID,0,VALID,94.0794,VALID,0,VALID,23.9955,VALID,27,VALID,0,
2009-05-09, 02:33:04,VALID,1003.52,VALID,0,VALID,94.087,VALID,0,VALID,23.9566,VALID,27,VALID,0,
2009-05-09, 02:34:04,VALID,1003.56,VALID,0,VALID,94.1633,VALID,0,VALID,23.9159,VALID,27,VALID,0,
2009-05-09, 02:35:04,VALID,1003.56,VALID,0,VALID,94.1556,VALID,0,VALID,23.9353,VALID,27,VALID,0,
2009-05-09, 02:36:04,VALID,1003.55,VALID,0,VALID,94.1099,VALID,0,VALID,23.9177,VALID,27,VALID,0,
2009-05-09, 02:37:04,VALID,1003.54,VALID,0,VALID,94.1175,VALID,0,VALID,23.8982,VALID,27,VALID,0,
2009-05-09, 02:38:04,VALID,1003.55,VALID,0,VALID,94.1404,VALID,0,VALID,23.9177,VALID,27,VALID,0,
2009-05-09, 02:39:04,VALID,1003.56,VALID,0,VALID,94.2548,VALID,0,VALID,23.9371,VALID,27,VALID,0.248047,
2009-05-09, 02:40:04,VALID,1003.5,VALID,0,VALID,94.2853,VALID,0,VALID,23.9584,VALID,27,VALID,0.300781,
2009-05-09, 02:41:04,VALID,1003.56,VALID,0,VALID,94.1938,VALID,0,VALID,23.9177,VALID,27,VALID,0.396094,
2009-05-09, 02:42:04,VALID,1003.55,VALID,0,VALID,94.1022,VALID,0,VALID,23.8982,VALID,27,VALID,0.255469,
2009-05-09, 02:43:04,VALID,1003.57,VALID,0,VALID,94.0488,VALID,0,VALID,23.838,VALID,27,VALID,0.01875,
2009-05-09, 02:44:04,VALID,1003.59,VALID,0,VALID,94.0565,VALID,0,VALID,23.8398,VALID,27,VALID,0,
2009-05-09, 02:45:04,VALID,1003.58,VALID,0,VALID,94.0717,VALID,0,VALID,23.8398,VALID,27,VALID,0,
2009-05-09, 02:46:04,VALID,1003.59,VALID,0,VALID,94.1785,VALID,0,VALID,23.8398,VALID,27,VALID,0.196484,
2009-05-09, 02:47:04,VALID,1003.63,VALID,0,VALID,94.3387,VALID,0,VALID,23.8769,VALID,27,VALID,0.219531,
2009-05-09, 02:48:04,VALID,1003.63,VALID,0,VALID,94.3692,VALID,0,VALID,23.9389,VALID,27,VALID,0,
2009-05-09, 02:49:04,VALID,1003.64,VALID,0,VALID,94.3769,VALID,0,VALID,23.9761,VALID,27,VALID,0,
2009-05-09, 02:50:04,VALID,1003.62,VALID,0,VALID,94.3845,VALID,0,VALID,23.9742,VALID,27,VALID,0.298438,
2009-05-09, 02:51:04,VALID,1003.61,VALID,0,VALID,94.3845,VALID,0,VALID,23.9955,VALID,27,VALID,0.265625,
2009-05-09, 02:52:04,VALID,1003.61,VALID,0,VALID,94.354,VALID,0,VALID,23.9955,VALID,27,VALID,0.170312,
2009-05-09, 02:53:04,VALID,1003.61,VALID,0,VALID,94.3692,VALID,0,VALID,23.9742,VALID,27,VALID,0,
2009-05-09, 02:54:04,VALID,1003.6,VALID,0,VALID,94.3616,VALID,0,VALID,23.9742,VALID,27,VALID,0,
2009-05-09, 02:55:04,VALID,1003.59,VALID,0,VALID,94.3387,VALID,0,VALID,23.9761,VALID,27,VALID,0,
2009-05-09, 02:56:04,VALID,1003.59,VALID,0,VALID,94.3769,VALID,0,VALID,23.9955,VALID,27,VALID,0,
2009-05-09, 02:57:04,VALID,1003.57,VALID,0,VALID,94.4074,VALID,0,VALID,23.9742,VALID,27,VALID,0.180469,
2009-05-09, 02:58:04,VALID,1003.56,VALID,0,VALID,94.3311,VALID,0,VALID,23.9955,VALID,27,VALID,0.255469,
2009-05-09, 02:59:04,VALID,1003.55,VALID,0,VALID,94.3082,VALID,0,VALID,23.9566,VALID,27,VALID,0.335547,
2009-05-09, 03:00:04,VALID,1003.53,VALID,0,VALID,94.3158,VALID,0,VALID,23.9742,VALID,27,VALID,0.232812,
2009-05-09, 03:01:04,VALID,1003.55,VALID,0,VALID,94.3464,VALID,0,VALID,23.9761,VALID,27,VALID,0,
2009-05-09, 03:02:04,VALID,1003.56,VALID,0,VALID,94.3235,VALID,0,VALID,23.9761,VALID,27,VALID,0,
2009-05-09, 03:03:04,VALID,1003.58,VALID,0,VALID,94.2624,VALID,0,VALID,23.9566,VALID,27,VALID,0,
2009-05-09, 03:04:04,VALID,1003.54,VALID,0,VALID,94.2701,VALID,0,VALID,23.9566,VALID,27,VALID,0,
2009-05-09, 03:05:04,VALID,1003.58,VALID,0,VALID,94.2624,VALID,0,VALID,23.9566,VALID,27,VALID,0,
2009-05-09, 03:06:04,VALID,1003.58,VALID,0,VALID,94.3082,VALID,0,VALID,23.9761,VALID,27,VALID,0,
2009-05-09, 03:07:04,VALID,1003.57,VALID,0,VALID,94.3006,VALID,0,VALID,23.9742,VALID,27,VALID,0,
2009-05-09, 03:08:04,VALID,1003.57,VALID,0,VALID,94.293,VALID,0,VALID,23.9548,VALID,27,VALID,0,
2009-05-09, 03:09:04,VALID,1003.57,VALID,0,VALID,94.3311,VALID,0,VALID,23.9761,VALID,27,VALID,0,
2009-05-09, 03:10:04,VALID,1003.58,VALID,0,VALID,94.3845,VALID,0,VALID,24.015,VALID,27,VALID,0,
2009-05-09, 03:11:04,VALID,1003.62,VALID,0,VALID,94.3616,VALID,0,VALID,24.0132,VALID,27,VALID,0,
2009-05-09, 03:12:04,VALID,1003.63,VALID,0,VALID,94.354,VALID,0,VALID,24.0345,VALID,27,VALID,0,
2009-05-09, 03:13:04,VALID,1003.67,VALID,0,VALID,94.3692,VALID,0,VALID,24.0132,VALID,27,VALID,0,
2009-05-09, 03:14:04,VALID,1003.71,VALID,0,VALID,94.4303,VALID,0,VALID,24.0326,VALID,27,VALID,0,
2009-05-09, 03:15:04,VALID,1003.77,VALID,0,VALID,94.4532,VALID,0,VALID,24.0716,VALID,27,VALID,0.0964844,
2009-05-09, 03:16:04,VALID,1003.85,VALID,0,VALID,94.5218,VALID,0,VALID,24.1105,VALID,135,VALID,0.898438,
2009-05-09, 03:17:04,VALID,1003.95,VALID,0,VALID,94.5142,VALID,0,VALID,24.13,VALID,139,VALID,2.37266,
2009-05-09, 03:18:04,VALID,1004.02,VALID,0,VALID,94.5218,VALID,0,VALID,24.2097,VALID,193,VALID,2.43594,
2009-05-09, 03:19:04,VALID,1004.03,VALID,0,VALID,94.0717,VALID,0,VALID,24.3052,VALID,200,VALID,1.6082,
2009-05-09, 03:20:04,VALID,1003.99,VALID,0,VALID,93.5606,VALID,0,VALID,24.4804,VALID,189,VALID,1.83008,
2009-05-09, 03:21:04,VALID,1003.98,VALID,0,VALID,92.7748,VALID,0,VALID,24.6983,VALID,161,VALID,2.12969,
2009-05-09, 03:22:04,VALID,1004.09,VALID,0,VALID,92.0882,VALID,0,VALID,24.8113,VALID,208,VALID,2.3543,
2009-05-09, 03:23:04,VALID,1004.06,VALID,0,VALID,90.8295,VALID,0,VALID,24.8716,VALID,206,VALID,2.34727,
2009-05-09, 03:24:04,VALID,1003.98,VALID,0,VALID,90.181,VALID,0,VALID,24.9282,VALID,191,VALID,3.13945,
2009-05-09, 03:25:04,VALID,1003.98,VALID,0,VALID,89.7461,VALID,0,VALID,24.969,VALID,195,VALID,2.71641,
2009-05-09, 03:26:04,VALID,1003.94,VALID,0,VALID,88.8154,VALID,0,VALID,24.9495,VALID,202,VALID,3.2957,
2009-05-09, 03:27:04,VALID,1003.92,VALID,0,VALID,88.8688,VALID,0.100563,VALID,24.9068,VALID,186,VALID,1.84922,
2009-05-09, 03:28:04,VALID,1003.91,VALID,0,VALID,89.3647,VALID,0.100563,VALID,24.9282,VALID,184,VALID,3.73594,
2009-05-09, 03:29:04,VALID,1003.92,VALID,0,VALID,89.708,VALID,0.100563,VALID,24.9282,VALID,213,VALID,3.78477,
2009-05-09, 03:30:04,VALID,1003.89,VALID,0,VALID,90.0971,VALID,0,VALID,24.9495,VALID,162,VALID,2.2043,
2009-05-09, 03:31:04,VALID,1003.97,VALID,0,VALID,89.9598,VALID,0.100563,VALID,24.9087,VALID,199,VALID,1.86172,
2009-05-09, 03:32:04,VALID,1003.98,VALID,0,VALID,89.4257,VALID,0.100563,VALID,24.8503,VALID,203,VALID,3.14258,
2009-05-09, 03:33:04,VALID,1003.92,VALID,0,VALID,89.1358,VALID,0.100563,VALID,24.8308,VALID,210,VALID,3.74805,
2009-05-09, 03:34:04,VALID,1003.97,VALID,0,VALID,89.3342,VALID,0.100563,VALID,24.8132,VALID,225,VALID,3.43633,
2009-05-09, 03:35:04,VALID,1003.79,VALID,0,VALID,89.0595,VALID,0.100563,VALID,24.7529,VALID,227,VALID,2.10664,
2009-05-09, 03:36:04,VALID,1003.94,VALID,0,VALID,88.9604,VALID,0.100563,VALID,24.714,VALID,190,VALID,1.58867,
2009-05-09, 03:37:04,VALID,1003.94,VALID,0,VALID,88.8078,VALID,0,VALID,24.675,VALID,194,VALID,1.91211,
2009-05-09, 03:38:04,VALID,1003.93,VALID,0,VALID,89.0977,VALID,0,VALID,24.675,VALID,187,VALID,1.13633,
2009-05-09, 03:39:04,VALID,1003.96,VALID,0,VALID,89.1358,VALID,0.100563,VALID,24.6361,VALID,232,VALID,3.22656,
2009-05-09, 03:40:04,VALID,1003.91,VALID,0,VALID,89.2884,VALID,0.100563,VALID,24.6166,VALID,191,VALID,2.92344,
2009-05-09, 03:41:04,VALID,1003.96,VALID,0,VALID,89.5631,VALID,0.100563,VALID,24.6166,VALID,211,VALID,2.0793,
2009-05-09, 03:42:04,VALID,1003.86,VALID,0,VALID,89.8606,VALID,0,VALID,24.599,VALID,237,VALID,2.11641,
2009-05-09, 03:43:04,VALID,1003.93,VALID,0,VALID,90.4556,VALID,0,VALID,24.5796,VALID,200,VALID,2.91211,
2009-05-09, 03:44:04,VALID,1003.85,VALID,0,VALID,90.6998,VALID,0,VALID,24.5796,VALID,190,VALID,1.98867,
2009-05-09, 03:45:04,VALID,1003.86,VALID,0,VALID,90.3946,VALID,0,VALID,24.5212,VALID,185,VALID,1.28828,
2009-05-09, 03:46:04,VALID,1003.85,VALID,0,VALID,90.1734,VALID,0,VALID,24.5017,VALID,214,VALID,1.83047,
2009-05-09, 03:47:04,VALID,1003.86,VALID,0,VALID,90.1047,VALID,0,VALID,24.4822,VALID,179,VALID,3.13789,
2009-05-09, 03:48:04,VALID,1003.86,VALID,0,VALID,90.2497,VALID,0,VALID,24.4609,VALID,158,VALID,0.894531,
2009-05-09, 03:49:04,VALID,1003.85,VALID,0,VALID,90.1734,VALID,0,VALID,24.4433,VALID,190,VALID,1.50391,
2009-05-09, 03:50:04,VALID,1003.84,VALID,0,VALID,90.4327,VALID,0,VALID,24.4628,VALID,184,VALID,2.02031,
2009-05-09, 03:51:04,VALID,1003.84,VALID,0,VALID,90.6235,VALID,0,VALID,24.4822,VALID,145,VALID,0.623047,